San Angelo, TX

4:57 PM CST on December 13, 2017 (GMT -0600)
San Angelo Regional-Mathis

Weather History for KSJT - October, 2011

Change the Weather History Date:

Friday, October 28, 2011

  Actual Average Record
Temperature  
Mean Temperature 49 °F 62 °F  
Max Temperature 60 °F 75 °F 91 °F (1950)
Min Temperature 38 °F 50 °F 28 °F (1913)
Degree Days  
Heating Degree Days 16 5  
Month to date heating degree days 43 65  
Since 1 July heating degree days 43 74  
Cooling Degree Days 0 2  
Month to date cooling degree days 167 112  
Year to date cooling degree days 3713 2477  
Growing Degree Days 2 (Base 50)    
Moisture  
Dew Point 36 °F    
Average Humidity 60    
Maximum Humidity 83    
Minimum Humidity 36    
Precipitation  
Precipitation 0.00 in 0.07 in 2.05 in (1991)
Month to date precipitation 2.91 2.52  
Year to date precipitation 7.92 19.05  
Snow  
Snow 0.00 in 0.00 in 0.00 in (2002)
Month to date snowfall 0.0 0.0  
Since 1 July snowfall 0.0 0.0  
Snow Depth 0.00 in    
Sea Level Pressure  
Sea Level Pressure 30.29 in    
Wind  
Wind Speed 7 mph (NNW)    
Max Wind Speed 15 mph    
Max Gust Speed 18 mph    
Visibility 10 miles    
Events      
T = Trace of Precipitation, MM = Missing Value Source: NWS Daily Summary

Daily Weather History Graph

Daily Weather History Graph

Search for Another Location

Airport or City:

Trip Planner

Search our weather history database for the weather conditions in past years. The results will help you decide how hot, cold, wet, or windy it might be!

Date:

Astronomy

Oct. 28, 2011 Rise Set
Actual Time 7:54 AM CDT 6:56 PM CDT
Civil Twilight 7:29 AM CDT 7:21 PM CDT
Nautical Twilight 7:00 AM CDT 7:50 PM CDT
Astronomical Twilight 6:32 AM CDT 8:18 PM CDT
Moon 10:01 AM CDT (10/28) 8:32 PM CDT (10/28)
Length of Visible Light 11h 52m
Length of Day
11h 02m
Waxing Crescent, 5% of the Moon is Illuminated
Oct 28
Waxing Crescent
Nov 2
First Quarter
Nov 10
Full
Nov 18
Last Quarter
Nov 25
New

Hourly Weather History & Observations

Time (CDT) Temp. Windchill Dew Point Humidity Pressure Visibility Wind Dir Wind Speed Gust Speed Precip Events Conditions
12:51 AM 45.0 °F 38.5 °F 39.0 °F 80% 30.22 in 10.0 mi NNE 13.8 mph - N/A   Overcast
1:51 AM 45.0 °F 39.7 °F 37.0 °F 74% 30.22 in 10.0 mi North 10.4 mph - N/A   Overcast
2:51 AM 45.0 °F 40.1 °F 37.0 °F 74% 30.24 in 10.0 mi North 9.2 mph - N/A   Overcast
3:51 AM 45.0 °F 38.9 °F 37.9 °F 76% 30.25 in 10.0 mi North 12.7 mph - N/A   Overcast
4:51 AM 44.1 °F 38.6 °F 37.0 °F 76% 30.25 in 10.0 mi North 10.4 mph - N/A   Overcast
5:51 AM 45.0 °F 39.7 °F 37.9 °F 76% 30.25 in 10.0 mi North 10.4 mph - N/A   Overcast
6:51 AM 45.0 °F 39.7 °F 37.9 °F 76% 30.27 in 10.0 mi NNW 10.4 mph - N/A   Overcast
7:51 AM 45.0 °F 39.7 °F 37.0 °F 74% 30.28 in 10.0 mi NW 10.4 mph - N/A   Overcast
8:43 AM 44.6 °F 40.7 °F 37.4 °F 76% 30.30 in 10.0 mi NW 6.9 mph - N/A   Overcast
8:51 AM 46.0 °F 42.5 °F 37.9 °F 73% 30.31 in 10.0 mi NW 6.9 mph - N/A   Overcast
9:51 AM 46.9 °F - 37.9 °F 71% 30.34 in 10.0 mi NW 11.5 mph - N/A   Overcast
10:51 AM - - - N/A% 30.35 in 10.0 mi NNW 9.2 mph - N/A   Overcast
11:51 AM - - - N/A% 30.35 in 10.0 mi North 8.1 mph 16.1 mph N/A   Mostly Cloudy
12:51 PM 55.0 °F - 36.0 °F 49% 30.35 in 10.0 mi NNW 9.2 mph 18.4 mph N/A   Mostly Cloudy
1:51 PM 55.9 °F - 36.0 °F 47% 30.31 in 10.0 mi North 11.5 mph - N/A   Partly Cloudy
2:51 PM 57.0 °F - 35.1 °F 44% 30.28 in 10.0 mi NNW 5.8 mph - N/A   Clear
3:51 PM 59.0 °F - 36.0 °F 42% 30.26 in 10.0 mi NE 4.6 mph - N/A   Clear
4:51 PM 59.0 °F - 35.1 °F 41% 30.26 in 10.0 mi Variable 5.8 mph - N/A   Clear
5:51 PM 60.1 °F - 34.0 °F 38% 30.26 in 10.0 mi North 10.4 mph - N/A   Clear
6:51 PM 57.0 °F - 34.0 °F 42% 30.28 in 10.0 mi North 5.8 mph - N/A   Clear
7:51 PM 54.0 °F - 36.0 °F 51% 30.30 in 10.0 mi NNW 3.5 mph - N/A   Clear
8:51 PM 50.0 °F - 36.0 °F 59% 30.31 in 10.0 mi Calm Calm - N/A   Clear
9:51 PM 48.9 °F - 36.0 °F 61% 30.33 in 10.0 mi North 3.5 mph - N/A   Clear
10:51 PM 43.0 °F - 34.0 °F 71% 30.33 in 10.0 mi Calm Calm - N/A   Clear
11:51 PM 41.0 °F 39.0 °F 33.1 °F 73% 30.33 in 10.0 mi South 3.5 mph - N/A   Clear